Flag for Germany Weather past 2 weeks in Stuttgart, Baden-Württemberg, Germany

55 °F

Partly sunny.

Feels Like: 55 °F
Forecast: 42 / 61 °F
Wind: 2 mph from North

Location: Stuttgart-Echterdingen

Current Time: Oct 9, 2015 at 11:47:15 AM

Latest Report: Oct 9, 2015 at 11:20 AM

Visibility: N/A

Pressure: 30.12 "Hg

Humidity: 82%

Dew point: 50 °F

Location of StuttgartLocation

Historic Weather in Stuttgart — Graph


Stuttgart temperature yesterday

Maximum temperature yesterday: 59 °F (at 12:20 PM)
Minimum temperature yesterday: 48 °F (at 5:20 AM)
Average temperature yesterday: 54 °F

Past Weeks' High & Low Weather Summary

High72 °F (Oct 3, 3:50 PM)100% (Sep 25, 8:20 AM)30.51 "Hg (Sep 25, 8:20 AM)
Low41 °F (Oct 1, 4:50 AM)32% (Sep 30, 3:50 PM)29.74 "Hg (Oct 6, 9:50 AM)
Average55 °F72%30.17 "Hg
* Reported Sep 24 10:20 AM — Oct 9 10:50 AM, Stuttgart, Weather by CustomWeather, © 2015

Note: Actual official high and low records may vary slightly from our data, if they occured in-between our weather recording intervals... More about our weather records


Stuttgart weather history for previous 24 hours

Time TempWeatherWind HumidityBarometerVisibility
10:50 AM
Fri, Oct 9
54 °FPartly sunny.2 mph88%30.15 "HgN/A
10:20 AM54 °FPartly sunny.1 mph88%30.15 "HgN/A
9:50 AM52 °FPartly sunny.1 mph94%30.12 "HgN/A
9:20 AM50 °FPartly sunny.1 mph94%30.12 "HgN/A
8:50 AM50 °FPartly sunny.No wind94%30.12 "HgN/A
8:20 AM48 °FPartly cloudy.No wind100%30.12 "HgN/A
7:50 AM48 °FPassing clouds.1 mph100%30.12 "HgN/A
7:20 AM48 °FPassing clouds.1 mph94%30.12 "HgN/A
6:50 AM50 °FPassing clouds.1 mph88%30.12 "HgN/A
6:20 AM50 °FClear.1 mph94%30.12 "Hg10 mi
5:50 AM48 °FClear.1 mph94%30.12 "Hg10 mi
5:20 AM50 °FPassing clouds.No wind88%30.12 "HgN/A
4:50 AM50 °FPassing clouds.1 mph88%30.12 "HgN/A
4:20 AM50 °FClear.1 mph94%30.12 "Hg10 mi
3:50 AM50 °FClear.3 mph88%30.12 "Hg10 mi
3:20 AM50 °FClear.5 mph94%30.15 "Hg10 mi
2:50 AM50 °FClear.2 mph94%30.15 "Hg10 mi
2:20 AM50 °FClear.2 mph88%30.15 "Hg10 mi
1:50 AM50 °FClear.2 mph94%30.15 "Hg10 mi
1:20 AM50 °FClear.2 mph94%30.15 "Hg10 mi
12:50 AM50 °FClear.2 mph88%30.15 "Hg10 mi
12:20 AM52 °FClear.3 mph88%30.15 "Hg10 mi
11:20 PM
Thu, Oct 8
54 °FClear.1 mph82%30.15 "Hg10 mi
10:50 PM54 °FClear.2 mph77%30.15 "Hg10 mi
10:20 PM54 °FClear.2 mph77%30.15 "Hg10 mi
9:50 PM54 °FClear.2 mph77%30.15 "Hg10 mi
9:20 PM54 °FPassing clouds.1 mph77%30.15 "HgN/A
8:50 PM55 °FPassing clouds.2 mph72%30.15 "HgN/A
8:20 PM55 °FClear.2 mph72%30.15 "Hg10 mi
7:50 PM55 °FClear.3 mph72%30.15 "Hg10 mi
7:20 PM55 °FSunny.5 mph72%30.15 "Hg10 mi
6:50 PM55 °FSunny.5 mph72%30.15 "Hg10 mi
6:20 PM57 °FPartly sunny.5 mph67%30.15 "HgN/A
5:50 PM57 °FPartly sunny.5 mph63%30.12 "HgN/A
5:20 PM57 °FBroken clouds.7 mph67%30.12 "HgN/A
4:50 PM57 °FBroken clouds.8 mph67%30.12 "HgN/A
4:20 PM57 °FBroken clouds.8 mph67%30.12 "HgN/A
3:50 PM57 °FBroken clouds.9 mph67%30.12 "HgN/A
3:20 PM59 °FBroken clouds.7 mph63%30.12 "HgN/A
2:50 PM59 °FBroken clouds.3 mph59%30.12 "HgN/A
2:20 PM59 °FBroken clouds.5 mph59%30.12 "HgN/A
1:50 PM59 °FBroken clouds.3 mph63%30.12 "HgN/A
1:20 PM57 °FBroken clouds.3 mph67%30.12 "HgN/A
12:50 PM59 °FBroken clouds.5 mph68%30.12 "HgN/A
12:20 PM59 °FScattered clouds.3 mph68%30.12 "HgN/A
11:50 AM57 °FScattered clouds.3 mph72%30.12 "HgN/A
11:20 AM57 °FScattered clouds.3 mph72%30.12 "HgN/A
Weather by CustomWeather, © 2015

See weather overviewHow to use our weather pages